User: anonymous   Login
Location: Unspecified
(20.0000°S, 0.0000°E)
Time: 18:22:39
(UTC+00:00)
Language:

JY1SAT - Orbit

View from above orbital plane
View from above orbital plane
View from above satellite
View from above satellite

Ground track
Ground track

The orbit data is extracted from the following two-line orbital elements,

1 43803U 18099AX  19235.41828897  .00000557  00000-0  55645-4 0  9998
2 43803  97.7387 306.5398 0016825 108.4171 251.8881 14.95298718 39244
Epoch (UTC): 23 August 2019 10:02:20
Eccentricity: 0.0016825
inclination: 97.7387°
perigee height: 570 km
apogee height: 593 km
right ascension of ascending node: 306.5398°
argument of perigee: 108.4171°
revolutions per day: 14.95298718
mean anomaly at epoch: 251.8881°
orbit number at epoch: 3924

The dashed part of the orbit path shows where the satellite is in the earth's shadow,  

DLR